FW6591 Weather Reports


time (UTC)temp
C
wind
direction
speed
KPH
gust
KPH
rain 1hr
cm
rain 24hr
cm
rain mn
cm
humidity
%
barometer
mb
20260510141541 14 341 6.4 17.7 0.00 0.00 0.00 46 1008.6
20260510140040 15 340 24.1 45.1 0.00 0.00 0.00 45 1008.2
20260510134550 15 351 20.9 35.4 0.00 0.00 0.00 47 1008.2
20260510133044 15 32 17.7 35.4 0.00 0.00 0.00 42 1007.7
20260510131546 15 352 8.0 35.4 0.00 0.00 0.00 43 1007.6
20260510130044 15 12 29.0 46.7 0.00 0.00 0.00 44 1007.5
20260510124557 15 338 20.9 41.8 0.00 0.00 0.00 44 1006.9
20260510123045 15 360 20.9 40.2 0.00 0.00 0.00 44 1006.6
20260510121544 14 5 22.5 45.1 0.00 0.00 0.00 48 1006.6
20260510120044 14 187 19.3 33.8 0.00 0.00 0.00 52 1006.5
20260510114545 14 360 16.1 43.5 0.00 0.00 0.00 53 1005.9
20260510113049 14 209 27.4 45.1 0.00 0.00 0.00 54 1006.2
20260510111549 13 13 29.0 45.1 0.00 0.00 0.00 56 1006.7
20260510110047 13 16 25.7 46.7 0.00 0.00 0.00 56 1006.5
20260510104544 13 307 27.4 46.7 0.00 0.00 0.00 56 1006.6
20260510103044 12 320 20.9 38.6 0.00 0.00 0.00 59 1006.5
20260510101539 12 284 16.1 27.4 0.00 0.00 0.00 59 1006.5
20260510100049 12 321 22.5 45.1 0.00 0.00 0.00 59 1006.9
20260510094557 11 323 30.6 48.3 0.00 0.00 0.00 61 1007.0
20260510093109 11 26 24.1 41.8 0.00 0.00 0.00 62 1006.9
20260510091546 12 9 14.5 62.8 0.00 0.00 0.00 58 1006.6
20260510090047 12 9 24.1 56.3 0.00 0.00 0.00 58 1004.6
20260510084546 12 9 24.1 54.7 0.00 0.00 0.00 59 1004.8
20260510083048 13 16 40.2 69.2 0.00 0.00 0.00 51 1006.3
20260510081547 16 268 40.2 57.9 0.00 0.00 0.00 42 1006.6
20260510080044 16 309 46.7 74.0 0.00 0.00 0.00 39 1006.1
20260510074544 16 318 25.7 40.2 0.00 0.00 0.00 38 1005.8
20260510073049 17 330 29.0 46.7 0.00 0.00 0.00 34 1006.2
20260510071552 17 320 24.1 37.0 0.00 0.00 0.00 32 1006.0
20260510070047 17 331 16.1 25.7 0.00 0.00 0.00 35 1006.1
20260510064544 17 250 1.6 9.7 0.00 0.00 0.00 37 1006.0
20260510063043 16 211 9.7 16.1 0.00 0.00 0.00 37 1005.9
20260510061552 16 305 14.5 27.4 0.00 0.00 0.00 35 1005.6
20260510060048 16 17 6.4 17.7 0.00 0.00 0.00 36 1005.2
20260510054549 13 281 6.4 19.3 0.00 0.00 0.00 39 1005.0
20260510053058 12 0 0.0 3.2 0.00 0.00 0.00 47 1005.2
20260510051548 12 0 0.0 4.8 0.00 0.00 0.00 45 1005.0
20260510050047 12 21 4.8 12.9 0.00 0.00 0.00 46 1004.7
20260510044551 12 9 1.6 4.8 0.00 0.00 0.00 50 1004.9
20260510043050 12 57 3.2 6.4 0.00 0.00 0.00 49 1004.9
20260510041547 12 13 0.0 3.2 0.00 0.00 0.00 49 1004.9
20260510040042 12 0 0.0 3.2 0.00 0.00 0.00 50 1005.0
20260510034544 13 0 1.6 4.8 0.00 0.00 0.00 49 1005.0
20260510033048 13 32 3.2 6.4 0.00 0.00 0.00 48 1004.9
20260510031546 14 327 4.8 11.3 0.00 0.00 0.00 48 1005.1
20260510030049 15 17 3.2 12.9 0.00 0.00 0.00 48 1005.3
20260510024541 15 12 3.2 9.7 0.00 0.00 0.00 47 1005.3
20260510023043 17 315 9.7 25.7 0.00 0.00 0.00 42 1005.3
20260510021547 17 292 11.3 27.4 0.00 0.00 0.00 41 1005.4
20260510020036 17 315 11.3 24.1 0.00 0.00 0.00 44 1005.5
20260510014547 17 9 6.4 17.7 0.00 0.00 0.00 45 1005.7
20260510013049 16 313 3.2 8.0 0.00 0.00 0.00 46 1005.9
20260510011550 16 9 6.4 12.9 0.00 0.00 0.00 47 1006.0
20260510010044 15 9 4.8 6.4 0.00 0.00 0.00 54 1006.1
20260510004551 14 43 1.6 6.4 0.00 0.00 0.00 58 1006.2
20260510003045 12 309 1.6 4.8 0.00 0.00 0.00 64 1006.4
20260510001544 12 9 1.6 3.2 0.00 0.00 0.00 63 1006.9
20260510000059 12 11 3.2 6.4 0.00 0.00 0.00 63 1007.2
20260509234548 12 304 4.8 8.0 0.00 0.00 0.00 61 1007.5
20260509233047 11 281 1.6 6.4 0.00 0.00 0.00 63 1007.7
20260509231545 11 36 3.2 6.4 0.00 0.00 0.00 65 1008.0
20260509230054 10 9 3.2 8.0 0.00 0.00 0.00 69 1008.6
20260509224547 10 303 3.2 6.4 0.00 0.00 0.00 69 1008.7
20260509223043 10 292 4.8 8.0 0.00 0.00 0.00 69 1009.0
20260509221550 10 314 1.6 4.8 0.00 0.00 0.00 68 1009.3
20260509220038 11 0 0.0 4.8 0.00 0.00 0.00 63 1009.7
20260509214559 11 350 1.6 3.2 0.00 0.00 0.00 60 1010.1
20260509213049 12 31 0.0 3.2 0.00 0.00 0.00 56 1010.4
20260509211545 13 11 1.6 4.8 0.00 0.00 0.00 53 1011.0
20260509210045 15 331 1.6 12.9 0.00 0.00 0.00 48 1011.1
20260509204543 16 46 4.8 16.1 0.00 0.00 0.00 43 1011.4
20260509203059 16 41 8.0 16.1 0.00 0.00 0.00 43 1011.6
20260509201548 16 38 9.7 20.9 0.00 0.00 0.00 44 1011.9
20260509200049 15 31 3.2 14.5 0.00 0.00 0.00 48 1012.0
20260509194548 15 41 6.4 9.7 0.00 0.00 0.00 48 1012.4
20260509193046 13 57 3.2 9.7 0.00 0.00 0.00 53 1012.7
20260509191554 12 344 1.6 8.0 0.00 0.00 0.00 58 1012.9
20260509190041 12 0 0.0 3.2 0.00 0.00 0.00 60 1012.9
20260509184557 12 0 0.0 3.2 0.00 0.00 0.00 57 1013.2
20260509183056 12 0 0.0 3.2 0.00 0.00 0.00 58 1013.4
20260509181545 13 0 0.0 3.2 0.00 0.00 0.00 55 1013.6
20260509180044 13 0 0.0 3.2 0.00 0.00 0.00 55 1013.8
20260509174548 13 0 0.0 3.2 0.00 0.00 0.00 53 1013.8
20260509173051 14 0 0.0 3.2 0.00 0.00 0.00 51 1014.0
20260509171544 15 0 1.6 6.4 0.00 0.00 0.00 50 1014.0
20260509170044 15 19 3.2 8.0 0.00 0.00 0.00 50 1013.7
20260509164544 15 16 1.6 8.0 0.00 0.00 0.00 50 1013.7
20260509163042 16 16 1.6 8.0 0.00 0.00 0.00 46 1013.7
20260509161545 16 348 1.6 12.9 0.00 0.00 0.00 44 1013.7
20260509160048 17 307 3.2 12.9 0.00 0.00 0.00 42 1013.8
20260509154544 17 9 1.6 12.9 0.00 0.00 0.00 42 1013.7
20260509153054 18 13 3.2 6.4 0.00 0.00 0.00 40 1013.7
20260509151544 19 332 3.2 12.9 0.00 0.00 0.00 38 1013.7
20260509150042 20 352 3.2 17.7 0.00 0.00 0.00 38 1013.5
20260509144540 20 316 8.0 17.7 0.00 0.00 0.00 34 1013.3
20260509143035 21 315 9.7 22.5 0.00 0.00 0.00 33 1013.4